Location: ?????? ??????
(44.3742°N, 135.2221°E)
Time: 15:10:13
(UTC+00:00)

DELTA 2 DEB (DPAF) - Pass Details

Date: 19 May 2025
Orbit: 538 x 548 km, 98.4° (Epoch: 21 June)

Event Time Altitude Azimuth Distance (km) Brightness Sun altitude
Rises 13:09:03 0° 12° (NNE) 2,727 8.2 -21.3°
Reaches altitude 10° 13:11:11 10° 11° (N) 1,826 7.2 -21.4°
Maximum altitude 13:15:08 79° 285° (WNW) 560 3.8 -21.7°
Enters shadow 13:15:38 65° 220° (SW) 601 3.8 -21.8°
